Location: Brunembert
(50.7122°N, 1.8935°E)
Time: 09:21:36
(UTC+00:00)

COSMOS 2455 - Pass Details

Date: 22 April 2021
Orbit: 902 x 907 km, 67.1° (Epoch: 16 May)

Event Time Altitude Azimuth Distance (km) Brightness Sun altitude
Rises 19:41:42 0° 163° (SSE) 3,517 5.5 -6.9°
Reaches altitude 10° 19:44:58 10° 146° (SE) 2,583 4.7 -7.4°
Maximum altitude 19:48:52 18° 104° (ESE) 2,058 4.1 -7.9°
Drops below altitude 10° 19:52:48 10° 63° (ENE) 2,596 4.9 -8.4°
Sets 19:56:04 0° 46° (NE) 3,544 5.8 -8.9°
